[[{"header":{"parameterUnit":"m.s-1","parameterCategory":1,"la1":30.2991,"la2":30.254,"lo1":-89.0895,"lo2":-89.0444,"dy":0.0017,"dx":0.0017,"nx":28,"ny":28,"refTime":"2024-08-16T09:00:00:Z","depth":0,"parameterNumber":2,"parameterNumberName":"U-component_of_WINDS"},"data":[0,0,0,0,0,0,0,0,0,0,0,0,0,0,0,0,0,0,0,0,0,0,0,0,0,0,0,0,0,0,0,0,0,0,0,0,0,0,0,0,0,0,0,0,0,0,0,0,0,0,0,0,0,0,0,0,0,0,-0.0936,-0.0935,0,-0.0831,-0.083,-0.0829,-0.0807,-0.0808,-0.0809,-0.0809,-0.0699,-0.0696,-0.0692,0,0,0,0,0,0,0,0,0,0,0,0,0,-0.1113,-0.111,-0.0936,-0.0934,-0.0933,-0.0831,-0.083,-0.0828,-0.0807,-0.0808,-0.0809,-0.081,-0.0701,-0.0696,-0.0692,0,0,0,0,0,0,0,0,0,0,0,0,0,-0.1025,-0.1109,-0.0936,-0.091,-0.0907,-0.0832,-0.083,-0.0828,-0.0807,-0.0808,-0.0809,-0.081,-0.0702,-0.0697,-0.0691,-0.0633,0,0,-0.0675,-0.0672,0,0,0,0,0,0,0,0,-0.103,-0.1018,-0.0915,-0.0912,-0.0908,-0.0833,-0.0852,-0.0763,-0.0806,-0.0845,-0.0809,-0.0811,-0.0743,-0.0734,-0.0712,-0.0628,-0.0624,-0.0674,-0.0671,-0.0668,-0.0667,0,0,0,0,0,0,0,-0.1036,-0.1023,-0.0894,-0.0914,-0.0909,-0.0902,-0.0891,-0.0835,-0.0788,-0.0841,-0.084,-0.0828,-0.0741,-0.0717,-0.0709,-0.0622,-0.0674,-0.0669,-0.0666,-0.0664,-0.0483,-0.0482,0,0,0,0,0,0,-0.1047,-0.1028,-0.0898,-0.0891,-0.0973,-0.0898,-0.0886,-0.0856,-0.0789,-0.078,-0.0827,-0.0827,-0.0726,-0.0715,-0.0705,-0.0632,-0.0668,-0.0663,-0.066,-0.0485,-0.0483,-0.0481,0,0,0,0,0,0,-0.1051,-0.1036,-0.0902,-0.0959,-0.0941,-0.0894,-0.0861,-0.0853,-0.0829,-0.0778,-0.0769,-0.0811,-0.0726,-0.0713,-0.0651,-0.0628,-0.0661,-0.0656,-0.0487,-0.0484,-0.0482,-0.0485,0,0,0,0,0,0,-0.1056,-0.1037,-0.1016,-0.0959,-0.0938,-0.0851,-0.0859,-0.085,-0.082,-0.082,-0.0761,-0.0752,-0.0726,-0.0659,-0.0646,-0.0621,-0.0651,-0.0488,-0.0486,-0.0483,-0.0487,-0.0483,-0.048,0,0,0,0,0,-0.1063,-0.1021,-0.1015,-0.0999,-0.0911,-0.085,-0.0838,-0.081,-0.0819,-0.0796,-0.0762,-0.0754,-0.0632,-0.0653,-0.0638,-0.0611,-0.049,-0.0486,-0.0483,-0.0488,-0.0484,-0.048,0,0,0,0,0,0,-0.1076,-0.1013,-0.1006,-0.0944,-0.0903,-0.0846,-0.0817,-0.0806,-0.0761,-0.0762,-0.0728,-0.0715,-0.0655,-0.0626,-0.0651,-0.055,-0.0561,-0.0555,-0.0571,-0.0566,-0.0563,-0.0571,-0.0647,0,0,0,0,0,-0.1072,-0.1029,-0.0975,-0.0926,-0.0906,-0.0865,-0.0837,-0.0819,-0.0774,-0.0756,-0.0718,-0.0674,-0.0625,-0.0594,-0.0547,-0.0482,-0.0468,-0.0456,-0.0452,-0.045,-0.0445,-0.0407,-0.04,-0.047,-0.047,-0.047,0,0,-0.1063,-0.1023,-0.0998,-0.0928,-0.0893,-0.0848,-0.085,-0.0802,-0.0767,-0.0748,-0.0688,-0.0658,-0.0606,-0.0543,-0.0513,-0.0517,-0.0422,-0.0446,-0.0444,-0.044,-0.0402,-0.0396,-0.039,-0.0468,-0.0469,-0.0469,0,0,-0.1023,-0.0989,-0.0944,-0.0909,-0.0857,-0.083,-0.0819,-0.0763,-0.0743,-0.0682,-0.0666,-0.0623,-0.0541,-0.0504,-0.0475,-0.0419,-0.0409,-0.0404,-0.0386,-0.035,-0.0344,-0.0339,-0.0318,-0.0311,-0.0399,-0.0399,-0.0399,0,-0.1019,-0.095,-0.0922,-0.0874,-0.0843,-0.0824,-0.0776,-0.0744,-0.0678,-0.0656,-0.0662,-0.0558,-0.0521,-0.0448,-0.0434,-0.0411,-0.0397,-0.0411,-0.0348,-0.0342,-0.0337,-0.0316,-0.0308,-0.0399,-0.0399,-0.0399,-0.0399,0,-0.0946,-0.0899,-0.0868,-0.0806,-0.0771,-0.0724,-0.0687,-0.0655,-0.0639,-0.0611,-0.0548,-0.0503,-0.0446,-0.0427,-0.0411,-0.0351,-0.0355,-0.0355,-0.0365,-0.033,-0.031,-0.0302,-0.0398,-0.0398,-0.0398,-0.0398,0,0,-0.0913,-0.0835,-0.0824,-0.0794,-0.0734,-0.0697,-0.0647,-0.0592,-0.0564,-0.0519,-0.0476,-0.0406,-0.0405,-0.0371,-0.0351,-0.0319,-0.0276,-0.0322,-0.032,-0.0314,-0.0204,-0.0205,-0.0196,-0.0269,-0.0267,-0.0266,-0.0208,0,-0.0866,-0.0779,-0.0751,-0.0678,-0.0632,-0.0612,-0.0569,-0.0527,-0.0498,-0.0455,-0.0423,-0.0373,-0.0376,-0.0356,-0.0323,-0.0288,-0.0253,-0.0292,-0.0227,-0.0225,-0.024,-0.0186,-0.0186,-0.0134,-0.02,-0.0199,-0.0198,0,-0.0799,-0.0753,-0.0676,-0.062,-0.0599,-0.0562,-0.0507,-0.0466,-0.0417,-0.0398,-0.036,-0.0342,-0.0288,-0.0302,-0.0226,-0.0253,-0.0224,-0.0203,-0.02,-0.0193,-0.0209,-0.0176,-0.0117,-0.0109,-0.0186,-0.0187,-0.0188,0,-0.0782,-0.07,-0.0643,-0.0619,-0.0552,-0.0525,-0.0496,-0.0448,-0.0416,-0.0367,-0.0346,-0.0292,-0.0262,-0.022,-0.0187,-0.0201,-0.0114,-0.0125,-0.0096,-0.0096,-0.0078,-0.008,-0.0013,-0.0061,-0.0061,-0.0061,-0.0061,0,-0.0732,-0.0685,-0.0634,-0.0599,-0.0545,-0.0512,-0.0459,-0.0428,-0.0385,-0.0343,-0.0321,-0.0281,-0.024,-0.0194,-0.0168,-0.0108,-0.0095,-0.0078,-0.0071,-0.0079,-0.0081,-0.006,-0.0063,-0.0059,-0.0059,-0.006,-0.006,0,-0.0703,-0.0668,-0.0604,-0.0545,-0.053,-0.0492,-0.0442,-0.0406,-0.0376,-0.0322,-0.0307,-0.026,-0.0205,-0.0167,-0.0096,-0.0078,-0.0013,-0.0008,-0.003,-0.0027,0.0001,-0.0002,0.0084,0.0097,0.004,0.0041,0.0041,0,-0.0674,-0.0637,-0.0575,-0.0545,-0.0515,-0.0468,-0.0434,-0.0399,-0.0365,-0.0305,-0.0276,-0.0219,-0.0172,-0.0084,-0.0043,0.0012,0.002,0.0046,0.0028,0.0019,0.0022,0.0019,0.0024,0.0049,0.0049,0.005,0.005,0,-0.0624,-0.0608,-0.0561,-0.0508,-0.0469,-0.0425,-0.038,-0.0357,-0.0314,-0.0276,-0.022,-0.0183,-0.011,-0.0053,0.0006,0.0038,0.0052,0.0056,0.0066,0.0058,0.0043,0.0053,-0.0022,0.0053,0.0053,0.0053,0.0053,0.0052,-0.0594,-0.056,-0.051,-0.0458,-0.0421,-0.0379,-0.0342,-0.0308,-0.026,-0.0198,-0.018,-0.0121,-0.007,0.0011,0.0044,0.0092,0.009,0.0104,0.0108,0.0111,0.0111,0.0035,0.0103,0.0103,0.0103,0.0103,0.0103,0,-0.0542,-0.0509,-0.0462,-0.04,-0.0359,-0.0349,-0.0299,-0.0265,-0.0213,-0.0167,-0.0121,-0.0055,0.0001,0.0047,0.0105,0.0135,0.0143,0.0149,0.0148,0.0155,0.011,0.0096,0.0142,0.0142,0.0142,0.0142,0.0142,0.0142,-0.0511,-0.0452,-0.043,-0.0351,-0.0318,-0.026,-0.0232,-0.0193,-0.0156,-0.0083,-0.0037,-0.0007,0.004,0.0102,0.0154,0.0166,0.0187,0.0192,0.0206,0.0162,0.0158,0.0154,0.0141,0.0196,0.0196,0.0247,0.0248,0.0248]},{"header":{"parameterUnit":"m.s-1","parameterCategory":1,"la1":30.2991,"la2":30.254,"lo1":-89.0895,"lo2":-89.0444,"dy":0.0017,"dx":0.0017,"nx":28,"ny":28,"refTime":"2024-08-16T09:00:00:Z","depth":0,"parameterNumber":3,"parameterNumberName":"V-component_of_WINDS"},"data":[0,0,0,0,0,0,0,0,0,0,0,0,0,0,0,0,0,0,0,0,0,0,0,0,0,0,0,0,0,0,0,0,0,0,0,0,0,0,0,0,0,0,0,0,0,0,0,0,0,0,0,0,0,0,0,0,0,0,-0.6551,-0.6551,0,-0.6489,-0.6488,-0.6487,-0.6459,-0.6459,-0.6459,-0.6459,-0.6397,-0.6395,-0.6393,0,0,0,0,0,0,0,0,0,0,0,0,0,-0.6647,-0.6646,-0.6551,-0.6551,-0.655,-0.6489,-0.6488,-0.6487,-0.6459,-0.6459,-0.6459,-0.6459,-0.6397,-0.6395,-0.6393,0,0,0,0,0,0,0,0,0,0,0,0,0,-0.6597,-0.6645,-0.6551,-0.6528,-0.6525,-0.6489,-0.6488,-0.6487,-0.6459,-0.6459,-0.6459,-0.6459,-0.6398,-0.6395,-0.6393,-0.6376,0,0,-0.6385,-0.6384,0,0,0,0,0,0,0,0,-0.66,-0.6594,-0.6532,-0.653,-0.6527,-0.6481,-0.6499,-0.645,-0.6459,-0.6484,-0.6459,-0.6459,-0.6425,-0.642,-0.6408,-0.6373,-0.637,-0.6385,-0.6383,-0.6382,-0.6381,0,0,0,0,0,0,0,-0.6604,-0.6596,-0.6527,-0.6531,-0.6528,-0.6521,-0.6514,-0.649,-0.6455,-0.6482,-0.648,-0.6472,-0.6423,-0.6411,-0.6407,-0.6369,-0.6385,-0.6383,-0.6381,-0.638,-0.6316,-0.6316,0,0,0,0,0,0,-0.6611,-0.66,-0.6529,-0.6525,-0.6564,-0.6519,-0.6512,-0.6496,-0.6455,-0.6449,-0.6472,-0.6471,-0.6415,-0.641,-0.6404,-0.6381,-0.6382,-0.638,-0.6378,-0.6316,-0.6316,-0.6316,0,0,0,0,0,0,-0.6613,-0.6605,-0.6531,-0.6561,-0.6552,-0.6518,-0.65,-0.6495,-0.6482,-0.6448,-0.6442,-0.6466,-0.6415,-0.6408,-0.6383,-0.6378,-0.6379,-0.6376,-0.6316,-0.6316,-0.6316,-0.6335,0,0,0,0,0,0,-0.6616,-0.6606,-0.6599,-0.6561,-0.655,-0.651,-0.65,-0.6493,-0.6477,-0.6475,-0.644,-0.6434,-0.6415,-0.6387,-0.638,-0.6375,-0.6374,-0.6316,-0.6316,-0.6316,-0.6334,-0.6335,-0.6336,0,0,0,0,0,-0.6619,-0.6607,-0.6598,-0.659,-0.654,-0.651,-0.6503,-0.648,-0.6477,-0.647,-0.6448,-0.6436,-0.638,-0.6384,-0.6377,-0.6371,-0.6317,-0.6316,-0.6316,-0.6334,-0.6335,-0.6336,0,0,0,0,0,0,-0.6645,-0.6602,-0.6592,-0.6567,-0.6542,-0.6505,-0.6495,-0.6482,-0.6458,-0.6457,-0.643,-0.6423,-0.64,-0.6383,-0.6388,-0.6352,-0.6347,-0.6345,-0.6364,-0.6364,-0.6365,-0.6369,-0.6372,0,0,0,0,0,-0.6648,-0.6626,-0.659,-0.6571,-0.6559,-0.6529,-0.6515,-0.6499,-0.6473,-0.6463,-0.6439,-0.6415,-0.6392,-0.6377,-0.6354,-0.6332,-0.6324,-0.6324,-0.6325,-0.6325,-0.6324,-0.6311,-0.631,-0.6314,-0.6314,-0.6314,0,0,-0.6653,-0.6627,-0.6615,-0.6575,-0.6554,-0.6533,-0.6521,-0.6499,-0.6483,-0.646,-0.6434,-0.6416,-0.6387,-0.6363,-0.6351,-0.6348,-0.6321,-0.6325,-0.6326,-0.6324,-0.631,-0.631,-0.631,-0.6314,-0.6314,-0.6314,0,0,-0.6652,-0.663,-0.6611,-0.659,-0.6559,-0.6539,-0.6535,-0.6499,-0.6486,-0.646,-0.6442,-0.6423,-0.6384,-0.6364,-0.6348,-0.6339,-0.6327,-0.6333,-0.6336,-0.6324,-0.6323,-0.6323,-0.6319,-0.6319,-0.6331,-0.6331,-0.6332,0,-0.6662,-0.6629,-0.6604,-0.6582,-0.6566,-0.6543,-0.6524,-0.6506,-0.6469,-0.6458,-0.6455,-0.6405,-0.6384,-0.6355,-0.6352,-0.6341,-0.6335,-0.6336,-0.6325,-0.6325,-0.6324,-0.632,-0.6319,-0.6332,-0.6332,-0.6332,-0.6332,0,-0.6643,-0.6621,-0.661,-0.6573,-0.6555,-0.6536,-0.6508,-0.6493,-0.6479,-0.6459,-0.6433,-0.6407,-0.6378,-0.637,-0.6356,-0.6339,-0.6338,-0.6331,-0.6325,-0.6325,-0.6321,-0.6319,-0.6334,-0.6333,-0.6333,-0.6333,0,0,-0.6656,-0.6606,-0.6602,-0.6585,-0.6549,-0.6531,-0.651,-0.6481,-0.6468,-0.6444,-0.6426,-0.6393,-0.6386,-0.6369,-0.6353,-0.6341,-0.6335,-0.6335,-0.6334,-0.6336,-0.6314,-0.632,-0.6318,-0.6327,-0.6327,-0.6327,-0.6317,0,-0.665,-0.6611,-0.6587,-0.6558,-0.6537,-0.6515,-0.6497,-0.6473,-0.6454,-0.6434,-0.6413,-0.639,-0.6383,-0.6372,-0.636,-0.6339,-0.6331,-0.6339,-0.6311,-0.631,-0.6318,-0.6316,-0.6322,-0.6314,-0.6315,-0.6315,-0.6314,0,-0.6637,-0.6611,-0.658,-0.6545,-0.6535,-0.6519,-0.649,-0.6471,-0.6443,-0.643,-0.6411,-0.6394,-0.6372,-0.6369,-0.6338,-0.6345,-0.6332,-0.6319,-0.6319,-0.6315,-0.6312,-0.6312,-0.6311,-0.631,-0.6312,-0.6312,-0.6312,0,-0.6649,-0.6607,-0.6582,-0.6568,-0.6527,-0.6517,-0.6499,-0.6471,-0.6455,-0.643,-0.642,-0.6393,-0.6379,-0.6359,-0.6336,-0.6336,-0.6307,-0.6302,-0.6296,-0.6297,-0.6291,-0.6292,-0.6287,-0.6283,-0.6283,-0.6283,-0.6283,0,-0.6643,-0.6625,-0.6587,-0.6572,-0.655,-0.6524,-0.6504,-0.6485,-0.646,-0.6441,-0.6421,-0.6404,-0.6375,-0.6355,-0.6337,-0.6314,-0.6308,-0.6297,-0.6292,-0.6299,-0.63,-0.6289,-0.6289,-0.6283,-0.6283,-0.6283,-0.6283,0,-0.6653,-0.6627,-0.6599,-0.6562,-0.6552,-0.6538,-0.6507,-0.6491,-0.6472,-0.6448,-0.6441,-0.641,-0.6385,-0.636,-0.6327,-0.6315,-0.6292,-0.6286,-0.6301,-0.6299,-0.6294,-0.6294,-0.6282,-0.6279,-0.6278,-0.6278,-0.6278,0,-0.6651,-0.6636,-0.6597,-0.6583,-0.6565,-0.6543,-0.6526,-0.6499,-0.6483,-0.645,-0.6439,-0.6412,-0.6389,-0.635,-0.6325,-0.6299,-0.6292,-0.629,-0.6288,-0.6295,-0.6292,-0.6293,-0.6291,-0.6291,-0.6291,-0.6291,-0.6291,0,-0.6651,-0.6638,-0.6614,-0.6586,-0.6566,-0.6542,-0.6518,-0.6508,-0.6477,-0.646,-0.6433,-0.6415,-0.638,-0.6354,-0.6325,-0.6308,-0.6294,-0.6292,-0.6289,-0.6295,-0.6304,-0.6298,-0.6303,-0.6292,-0.6292,-0.6292,-0.6292,-0.6292,-0.6654,-0.6639,-0.661,-0.6584,-0.6562,-0.654,-0.6524,-0.6502,-0.6479,-0.6448,-0.6434,-0.6407,-0.638,-0.634,-0.6323,-0.6302,-0.6298,-0.6295,-0.6293,-0.6293,-0.6294,-0.6307,-0.6297,-0.6297,-0.6297,-0.6297,-0.6297,0,-0.6652,-0.6631,-0.6608,-0.6574,-0.6554,-0.6542,-0.6514,-0.6498,-0.6475,-0.645,-0.6427,-0.6397,-0.6371,-0.6344,-0.6317,-0.6306,-0.6299,-0.63,-0.63,-0.6296,-0.6299,-0.6304,-0.6306,-0.6306,-0.6306,-0.6306,-0.6306,-0.6306,-0.6648,-0.6623,-0.6607,-0.6571,-0.6551,-0.6524,-0.6509,-0.6489,-0.6469,-0.6435,-0.6413,-0.6396,-0.637,-0.6341,-0.6317,-0.631,-0.6301,-0.6303,-0.6294,-0.6297,-0.6296,-0.6296,-0.63,-0.6301,-0.6301,-0.6293,-0.6293,-0.6293]}]]